| time (UTC) | temp C | wind direction | speed KPH | gust KPH | rain 1hr cm | rain 24hr cm | rain mn cm | humidity % | barometer mb |
| 20260507115504 | 5 | 322 | 1.6 | 4.8 | 0.00 | 0.61 | 0.00 | 77 | 1013.4 |
| 20260507115006 | 5 | 288 | 1.6 | 4.8 | 0.00 | 0.64 | 0.00 | 78 | 1013.5 |
| 20260507114515 | 5 | 299 | 1.6 | 4.8 | 0.00 | 0.64 | 0.00 | 79 | 1013.5 |
| 20260507114004 | 5 | 352 | 1.6 | 3.2 | 0.00 | 0.64 | 0.00 | 79 | 1013.5 |
| 20260507113505 | 5 | 352 | 0.0 | 3.2 | 0.00 | 0.66 | 0.00 | 79 | 1013.5 |
| 20260507113012 | 4 | 352 | 0.0 | 3.2 | 0.00 | 0.66 | 0.00 | 80 | 1013.4 |
| 20260507112504 | 4 | 352 | 1.6 | 3.2 | 0.00 | 0.69 | 0.00 | 80 | 1013.4 |
| 20260507112009 | 4 | 352 | 0.0 | 3.2 | 0.00 | 0.69 | 0.00 | 81 | 1013.3 |
| 20260507111523 | 3 | 352 | 0.0 | 3.2 | 0.00 | 0.69 | 0.00 | 81 | 1013.3 |
| 20260507111006 | 3 | 352 | 0.0 | 3.2 | 0.00 | 0.69 | 0.00 | 82 | 1013.2 |
| 20260507110506 | 3 | 352 | 0.0 | 3.2 | 0.00 | 0.71 | 0.00 | 82 | 1013.2 |
| 20260507110004 | 3 | 352 | 0.0 | 3.2 | 0.00 | 0.71 | 0.00 | 82 | 1013.1 |
| 20260507105503 | 3 | 352 | 0.0 | 3.2 | 0.00 | 0.71 | 0.00 | 82 | 1013.0 |
| 20260507105003 | 3 | 352 | 0.0 | 3.2 | 0.00 | 0.74 | 0.00 | 82 | 1013.0 |
| 20260507104508 | 3 | 352 | 0.0 | 3.2 | 0.00 | 0.74 | 0.00 | 82 | 1013.0 |
| 20260507104004 | 3 | 360 | 0.0 | 3.2 | 0.00 | 0.76 | 0.00 | 81 | 1012.9 |
| 20260507103504 | 3 | 360 | 0.0 | 3.2 | 0.00 | 0.76 | 0.00 | 81 | 1012.9 |
| 20260507103010 | 3 | 360 | 0.0 | 3.2 | 0.00 | 0.76 | 0.00 | 80 | 1012.8 |
| 20260507102506 | 3 | 360 | 1.6 | 3.2 | 0.00 | 0.79 | 0.00 | 80 | 1012.8 |
| 20260507102010 | 3 | 360 | 1.6 | 3.2 | 0.00 | 0.79 | 0.00 | 80 | 1012.8 |
| 20260507101519 | 3 | 360 | 0.0 | 3.2 | 0.00 | 0.79 | 0.00 | 80 | 1012.7 |
| 20260507101005 | 3 | 360 | 0.0 | 3.2 | 0.00 | 0.79 | 0.00 | 80 | 1012.7 |
| 20260507100505 | 4 | 360 | 0.0 | 3.2 | 0.00 | 0.79 | 0.00 | 81 | 1012.7 |
| 20260507100022 | 4 | 360 | 0.0 | 3.2 | 0.00 | 0.79 | 0.00 | 80 | 1012.7 |
| 20260507095509 | 4 | 360 | 0.0 | 3.2 | 0.00 | 0.79 | 0.00 | 80 | 1012.7 |
| 20260507095008 | 4 | 360 | 0.0 | 3.2 | 0.00 | 0.81 | 0.00 | 80 | 1012.6 |
| 20260507094504 | 4 | 360 | 0.0 | 3.2 | 0.00 | 0.81 | 0.00 | 80 | 1012.7 |
| 20260507094004 | 4 | 360 | 0.0 | 3.2 | 0.00 | 0.81 | 0.00 | 80 | 1012.7 |
| 20260507093504 | 4 | 360 | 0.0 | 3.2 | 0.00 | 0.81 | 0.00 | 80 | 1012.7 |
| 20260507093010 | 5 | 360 | 0.0 | 3.2 | 0.00 | 0.81 | 0.00 | 80 | 1012.8 |
| 20260507092505 | 5 | 360 | 0.0 | 3.2 | 0.00 | 0.81 | 0.00 | 80 | 1012.8 |
| 20260507092008 | 5 | 360 | 1.6 | 3.2 | 0.00 | 0.81 | 0.00 | 79 | 1012.8 |
| 20260507091513 | 5 | 360 | 0.0 | 3.2 | 0.00 | 0.81 | 0.00 | 78 | 1012.9 |
| 20260507091008 | 5 | 360 | 0.0 | 3.2 | 0.00 | 0.81 | 0.00 | 76 | 1012.8 |
| 20260507090507 | 5 | 352 | 0.0 | 3.2 | 0.00 | 0.81 | 0.00 | 78 | 1012.7 |
| 20260507090031 | 5 | 337 | 0.0 | 3.2 | 0.00 | 0.81 | 0.00 | 77 | 1012.6 |
| 20260507085508 | 6 | 329 | 0.0 | 3.2 | 0.00 | 0.81 | 0.00 | 75 | 1012.5 |
| 20260507085010 | 6 | 308 | 0.0 | 3.2 | 0.00 | 0.81 | 0.00 | 75 | 1012.5 |
| 20260507084533 | 6 | 331 | 0.0 | 3.2 | 0.00 | 0.81 | 0.00 | 73 | 1012.6 |
| 20260507084009 | 6 | 331 | 0.0 | 3.2 | 0.00 | 0.81 | 0.00 | 74 | 1012.8 |
| 20260507083510 | 6 | 331 | 1.6 | 6.4 | 0.00 | 0.81 | 0.00 | 74 | 1012.7 |
| 20260507083004 | 6 | 329 | 0.0 | 6.4 | 0.00 | 0.81 | 0.00 | 73 | 1012.6 |
| 20260507082504 | 6 | 336 | 1.6 | 4.8 | 0.00 | 0.81 | 0.00 | 74 | 1012.6 |
| 20260507082006 | 6 | 293 | 0.0 | 6.4 | 0.00 | 0.81 | 0.00 | 73 | 1012.7 |
| 20260507081513 | 6 | 324 | 1.6 | 6.4 | 0.00 | 0.81 | 0.00 | 73 | 1012.7 |
| 20260507081005 | 6 | 309 | 3.2 | 6.4 | 0.00 | 0.81 | 0.00 | 73 | 1012.7 |
| 20260507080506 | 6 | 307 | 1.6 | 9.7 | 0.00 | 0.81 | 0.00 | 73 | 1012.8 |
| 20260507080017 | 6 | 319 | 1.6 | 9.7 | 0.00 | 0.81 | 0.00 | 72 | 1012.7 |
| 20260507075507 | 6 | 331 | 3.2 | 9.7 | 0.00 | 0.81 | 0.00 | 72 | 1012.7 |
| 20260507075010 | 6 | 307 | 1.6 | 11.3 | 0.00 | 0.81 | 0.00 | 72 | 1012.6 |
| 20260507074536 | 6 | 297 | 1.6 | 11.3 | 0.00 | 0.81 | 0.00 | 71 | 1012.6 |
| 20260507074008 | 6 | 10 | 1.6 | 4.8 | 0.00 | 0.81 | 0.00 | 72 | 1012.6 |
| 20260507073510 | 6 | 336 | 1.6 | 4.8 | 0.00 | 0.81 | 0.00 | 73 | 1012.6 |
| 20260507073025 | 7 | 311 | 1.6 | 8.0 | 0.00 | 0.81 | 0.00 | 75 | 1012.6 |
| 20260507072509 | 7 | 298 | 3.2 | 8.0 | 0.00 | 0.81 | 0.00 | 75 | 1012.5 |
| 20260507072012 | 7 | 298 | 3.2 | 8.0 | 0.00 | 0.81 | 0.00 | 75 | 1012.5 |
| 20260507071510 | 7 | 302 | 3.2 | 8.0 | 0.00 | 0.81 | 0.00 | 76 | 1012.5 |
| 20260507071004 | 7 | 323 | 1.6 | 6.4 | 0.00 | 0.81 | 0.00 | 77 | 1012.5 |
| 20260507070504 | 7 | 296 | 1.6 | 6.4 | 0.00 | 0.81 | 0.00 | 77 | 1012.5 |
| 20260507070013 | 7 | 288 | 1.6 | 6.4 | 0.00 | 0.81 | 0.00 | 78 | 1012.5 |
| 20260507065508 | 7 | 346 | 0.0 | 6.4 | 0.00 | 0.81 | 0.00 | 77 | 1012.4 |
| 20260507065009 | 7 | 321 | 1.6 | 6.4 | 0.00 | 0.81 | 0.00 | 77 | 1012.4 |
| 20260507064520 | 7 | 340 | 1.6 | 4.8 | 0.00 | 0.81 | 0.00 | 77 | 1012.4 |
| 20260507064008 | 6 | 316 | 1.6 | 4.8 | 0.00 | 0.81 | 0.00 | 77 | 1012.6 |
| 20260507063511 | 6 | 336 | 1.6 | 4.8 | 0.00 | 0.81 | 0.00 | 77 | 1012.6 |
| 20260507063028 | 6 | 312 | 1.6 | 6.4 | 0.00 | 0.81 | 0.00 | 76 | 1012.7 |
| 20260507062511 | 6 | 320 | 1.6 | 6.4 | 0.00 | 0.81 | 0.00 | 76 | 1012.7 |
| 20260507062013 | 7 | 323 | 1.6 | 8.0 | 0.00 | 0.81 | 0.00 | 76 | 1012.7 |
| 20260507061526 | 7 | 331 | 1.6 | 8.0 | 0.00 | 0.81 | 0.00 | 76 | 1012.7 |
| 20260507061007 | 7 | 319 | 3.2 | 6.4 | 0.00 | 0.81 | 0.00 | 76 | 1012.7 |
| 20260507060507 | 7 | 307 | 1.6 | 12.9 | 0.00 | 0.81 | 0.00 | 76 | 1012.7 |
| 20260507060011 | 7 | 305 | 3.2 | 12.9 | 0.00 | 0.81 | 0.00 | 76 | 1012.6 |
| 20260507055505 | 7 | 290 | 4.8 | 12.9 | 0.00 | 0.81 | 0.00 | 76 | 1012.7 |
| 20260507055004 | 7 | 295 | 4.8 | 11.3 | 0.00 | 0.81 | 0.00 | 77 | 1012.6 |
| 20260507054516 | 7 | 302 | 3.2 | 11.3 | 0.00 | 0.81 | 0.00 | 77 | 1012.5 |
| 20260507054004 | 7 | 293 | 3.2 | 12.9 | 0.00 | 0.81 | 0.00 | 77 | 1012.5 |
| 20260507053508 | 7 | 314 | 4.8 | 12.9 | 0.00 | 0.81 | 0.00 | 78 | 1012.6 |
| 20260507053022 | 7 | 317 | 6.4 | 16.1 | 0.00 | 0.81 | 0.00 | 77 | 1012.6 |
| 20260507052508 | 7 | 309 | 4.8 | 16.1 | 0.00 | 0.81 | 0.00 | 78 | 1012.5 |
| 20260507052010 | 7 | 279 | 3.2 | 14.5 | 0.00 | 0.81 | 0.00 | 80 | 1012.5 |
| 20260507051506 | 7 | 296 | 4.8 | 14.5 | 0.00 | 0.81 | 0.00 | 81 | 1012.4 |
| 20260507051002 | 7 | 299 | 6.4 | 12.9 | 0.00 | 0.81 | 0.00 | 83 | 1012.6 |
| 20260507050506 | 7 | 323 | 4.8 | 12.9 | 0.00 | 0.81 | 0.00 | 86 | 1012.4 |
| 20260507050008 | 7 | 315 | 3.2 | 8.0 | 0.00 | 0.81 | 0.00 | 87 | 1012.5 |
| 20260507045506 | 7 | 311 | 3.2 | 8.0 | 0.00 | 0.81 | 0.00 | 87 | 1012.4 |
| 20260507045006 | 7 | 338 | 1.6 | 4.8 | 0.00 | 0.81 | 0.00 | 88 | 1012.3 |
| 20260507044514 | 8 | 306 | 1.6 | 4.8 | 0.00 | 0.81 | 0.00 | 87 | 1012.3 |
| 20260507044009 | 8 | 305 | 0.0 | 3.2 | 0.00 | 0.81 | 0.00 | 87 | 1012.3 |
| 20260507043509 | 8 | 305 | 1.6 | 4.8 | 0.00 | 0.81 | 0.00 | 87 | 1012.3 |
| 20260507043003 | 8 | 305 | 1.6 | 6.4 | 0.00 | 0.81 | 0.00 | 87 | 1012.2 |
| 20260507042503 | 8 | 334 | 1.6 | 6.4 | 0.00 | 0.81 | 0.00 | 86 | 1012.2 |
| 20260507042003 | 8 | 329 | 1.6 | 4.8 | 0.00 | 0.81 | 0.00 | 87 | 1012.4 |
| 20260507041506 | 8 | 326 | 3.2 | 4.8 | 0.00 | 0.81 | 0.00 | 88 | 1012.3 |
| 20260507041003 | 8 | 311 | 1.6 | 4.8 | 0.00 | 0.81 | 0.00 | 88 | 1012.4 |
| 20260507040503 | 8 | 325 | 1.6 | 3.2 | 0.00 | 0.81 | 0.00 | 88 | 1012.2 |
| 20260507040008 | 8 | 324 | 1.6 | 4.8 | 0.00 | 0.81 | 0.00 | 89 | 1012.1 |
| 20260507035503 | 8 | 324 | 3.2 | 4.8 | 0.00 | 0.81 | 0.81 | 89 | 1012.2 |
| 20260507035006 | 8 | 329 | 1.6 | 6.4 | 0.00 | 0.81 | 0.81 | 90 | 1012.1 |
| 20260507034510 | 8 | 326 | 3.2 | 6.4 | 0.00 | 0.81 | 0.81 | 91 | 1012.2 |
| 20260507034007 | 7 | 86 | 0.0 | 3.2 | 0.00 | 0.81 | 0.81 | 92 | 1012.4 |
| 20260507033509 | 7 | 86 | 0.0 | 3.2 | 0.00 | 0.81 | 0.81 | 92 | 1012.5 |
| 20260507033019 | 7 | 86 | 0.0 | 3.2 | 0.00 | 0.81 | 0.81 | 92 | 1012.3 |
| 20260507032505 | 7 | 86 | 0.0 | 0.0 | 0.00 | 0.81 | 0.81 | 92 | 1012.5 |
| 20260507032011 | 7 | 86 | 0.0 | 0.0 | 0.00 | 0.81 | 0.81 | 91 | 1012.3 |
| 20260507031507 | 7 | 86 | 0.0 | 3.2 | 0.00 | 0.81 | 0.81 | 91 | 1012.5 |
| 20260507031003 | 7 | 86 | 0.0 | 3.2 | 0.00 | 0.81 | 0.81 | 91 | 1012.3 |
| 20260507030503 | 7 | 86 | 0.0 | 3.2 | 0.00 | 0.81 | 0.81 | 92 | 1012.1 |
| 20260507030004 | 7 | 86 | 0.0 | 3.2 | 0.00 | 0.81 | 0.81 | 92 | 1012.1 |
| 20260507025505 | 7 | 86 | 0.0 | 3.2 | 0.00 | 0.81 | 0.81 | 91 | 1012.1 |
| 20260507025003 | 7 | 86 | 0.0 | 3.2 | 0.00 | 0.81 | 0.81 | 91 | 1012.2 |
| 20260507024508 | 7 | 86 | 0.0 | 3.2 | 0.00 | 0.81 | 0.81 | 91 | 1012.2 |
| 20260507024005 | 8 | 86 | 0.0 | 3.2 | 0.00 | 0.81 | 0.81 | 91 | 1012.2 |
| 20260507023508 | 8 | 86 | 0.0 | 3.2 | 0.00 | 0.81 | 0.81 | 91 | 1012.0 |
| 20260507023013 | 8 | 86 | 1.6 | 3.2 | 0.00 | 0.81 | 0.81 | 91 | 1011.9 |
| 20260507022508 | 8 | 56 | 1.6 | 3.2 | 0.00 | 0.81 | 0.81 | 91 | 1012.1 |
| 20260507022010 | 8 | 56 | 0.0 | 3.2 | 0.00 | 0.81 | 0.81 | 91 | 1012.4 |
| 20260507021519 | 8 | 56 | 1.6 | 3.2 | 0.00 | 0.81 | 0.81 | 91 | 1012.5 |
| 20260507021009 | 8 | 56 | 0.0 | 3.2 | 0.00 | 0.81 | 0.81 | 91 | 1012.6 |
| 20260507020513 | 8 | 56 | 0.0 | 3.2 | 0.00 | 0.81 | 0.81 | 91 | 1012.5 |
| 20260507020006 | 8 | 56 | 0.0 | 3.2 | 0.00 | 0.81 | 0.81 | 91 | 1012.7 |
| 20260507015506 | 8 | 56 | 0.0 | 3.2 | 0.00 | 0.81 | 0.81 | 91 | 1012.9 |
| 20260507015003 | 8 | 93 | 0.0 | 3.2 | 0.00 | 0.81 | 0.81 | 90 | 1012.8 |
| 20260507014512 | 8 | 93 | 0.0 | 3.2 | 0.00 | 0.81 | 0.81 | 90 | 1012.5 |
| 20260507014004 | 8 | 221 | 0.0 | 4.8 | 0.00 | 0.81 | 0.81 | 90 | 1012.7 |
| 20260507013506 | 8 | 232 | 1.6 | 4.8 | 0.00 | 0.81 | 0.81 | 90 | 1012.5 |
| 20260507013013 | 8 | 339 | 0.0 | 3.2 | 0.00 | 0.81 | 0.81 | 90 | 1012.4 |
| 20260507012504 | 8 | 28 | 0.0 | 0.0 | 0.00 | 0.81 | 0.81 | 90 | 1012.5 |
| 20260507012007 | 8 | 28 | 0.0 | 0.0 | 0.00 | 0.81 | 0.81 | 90 | 1012.3 |
| 20260507011531 | 8 | 28 | 0.0 | 0.0 | 0.00 | 0.81 | 0.81 | 90 | 1012.8 |
| 20260507011007 | 9 | 28 | 0.0 | 3.2 | 0.00 | 0.81 | 0.81 | 90 | 1012.8 |
| 20260507010510 | 9 | 28 | 0.0 | 3.2 | 0.00 | 0.81 | 0.81 | 90 | 1012.6 |
| 20260507010022 | 8 | 28 | 0.0 | 3.2 | 0.00 | 0.81 | 0.81 | 89 | 1012.5 |
| 20260507005507 | 8 | 28 | 0.0 | 3.2 | 0.00 | 0.81 | 0.81 | 89 | 1012.3 |
| 20260507005008 | 9 | 87 | 0.0 | 3.2 | 0.00 | 0.81 | 0.81 | 90 | 1012.2 |
| 20260507004505 | 9 | 94 | 0.0 | 3.2 | 0.00 | 0.81 | 0.81 | 89 | 1012.2 |
| 20260507004005 | 9 | 94 | 0.0 | 3.2 | 0.00 | 0.81 | 0.81 | 89 | 1012.1 |
| 20260507003504 | 9 | 94 | 0.0 | 3.2 | 0.00 | 0.81 | 0.81 | 89 | 1012.0 |
| 20260507003015 | 9 | 94 | 0.0 | 3.2 | 0.00 | 0.81 | 0.81 | 89 | 1011.9 |
| 20260507002503 | 9 | 94 | 0.0 | 3.2 | 0.00 | 0.81 | 0.81 | 88 | 1011.8 |
| 20260507002008 | 9 | 94 | 0.0 | 3.2 | 0.00 | 0.81 | 0.81 | 87 | 1011.7 |
| 20260507001516 | 9 | 23 | 1.6 | 3.2 | 0.00 | 0.81 | 0.81 | 87 | 1011.6 |
| 20260507001008 | 9 | 91 | 1.6 | 3.2 | 0.00 | 0.81 | 0.81 | 87 | 1011.5 |
| 20260507000507 | 9 | 26 | 0.0 | 4.8 | 0.00 | 0.81 | 0.81 | 86 | 1011.5 |
| 20260507000023 | 9 | 26 | 0.0 | 4.8 | 0.00 | 0.81 | 0.81 | 86 | 1011.3 |
| 20260506235507 | 10 | 26 | 1.6 | 4.8 | 0.00 | 0.81 | 0.81 | 86 | 1011.1 |
| 20260506235007 | 10 | 9 | 1.6 | 4.8 | 0.00 | 0.81 | 0.81 | 85 | 1011.1 |
| 20260506234522 | 10 | 346 | 1.6 | 9.7 | 0.00 | 0.81 | 0.81 | 85 | 1011.1 |
| 20260506234011 | 10 | 346 | 1.6 | 14.5 | 0.00 | 0.81 | 0.81 | 85 | 1011.0 |
| 20260506233504 | 10 | 352 | 1.6 | 14.5 | 0.00 | 0.81 | 0.81 | 85 | 1010.8 |
| 20260506233006 | 10 | 13 | 1.6 | 4.8 | 0.00 | 0.81 | 0.81 | 85 | 1010.7 |
| 20260506232505 | 10 | 13 | 1.6 | 8.0 | 0.00 | 0.81 | 0.81 | 85 | 1010.8 |
| 20260506232006 | 10 | 360 | 4.8 | 8.0 | 0.00 | 0.81 | 0.81 | 85 | 1010.8 |
| 20260506231509 | 10 | 339 | 4.8 | 17.7 | 0.00 | 0.81 | 0.81 | 84 | 1010.8 |
| 20260506231009 | 10 | 352 | 8.0 | 17.7 | 0.00 | 0.81 | 0.81 | 84 | 1010.8 |
| 20260506230506 | 10 | 311 | 4.8 | 12.9 | 0.00 | 0.81 | 0.81 | 86 | 1010.6 |
| 20260506230017 | 10 | 56 | 3.2 | 9.7 | 0.00 | 0.81 | 0.81 | 86 | 1010.6 |
| 20260506225507 | 10 | 5 | 3.2 | 8.0 | 0.00 | 0.81 | 0.81 | 86 | 1010.6 |
| 20260506225006 | 10 | 9 | 4.8 | 8.0 | 0.00 | 0.81 | 0.81 | 86 | 1010.5 |
| 20260506224523 | 10 | 5 | 3.2 | 4.8 | 0.00 | 0.81 | 0.81 | 86 | 1010.5 |
| 20260506224012 | 10 | 26 | 1.6 | 8.0 | 0.00 | 0.81 | 0.81 | 86 | 1010.5 |
| 20260506223511 | 10 | 14 | 3.2 | 8.0 | 0.00 | 0.81 | 0.81 | 85 | 1010.5 |
| 20260506223024 | 10 | 311 | 1.6 | 12.9 | 0.00 | 0.81 | 0.81 | 85 | 1010.5 |
| 20260506222510 | 10 | 352 | 1.6 | 12.9 | 0.00 | 0.81 | 0.81 | 86 | 1010.5 |
| 20260506222006 | 10 | 352 | 4.8 | 9.7 | 0.00 | 0.81 | 0.81 | 86 | 1010.4 |
| 20260506221510 | 10 | 352 | 3.2 | 8.0 | 0.00 | 0.81 | 0.81 | 86 | 1010.3 |
| 20260506221003 | 10 | 319 | 3.2 | 8.0 | 0.00 | 0.81 | 0.81 | 86 | 1010.3 |
| 20260506220507 | 10 | 331 | 3.2 | 12.9 | 0.00 | 0.81 | 0.81 | 85 | 1010.3 |
| 20260506220014 | 10 | 324 | 6.4 | 12.9 | 0.00 | 0.81 | 0.81 | 86 | 1010.1 |
| 20260506215507 | 10 | 323 | 6.4 | 19.3 | 0.00 | 0.81 | 0.81 | 86 | 1010.1 |
| 20260506215007 | 10 | 323 | 6.4 | 19.3 | 0.00 | 0.81 | 0.81 | 85 | 1009.8 |
| 20260506214520 | 10 | 298 | 9.7 | 17.7 | 0.00 | 0.81 | 0.81 | 85 | 1009.7 |
| 20260506214012 | 11 | 315 | 9.7 | 19.3 | 0.00 | 0.81 | 0.81 | 86 | 1009.6 |
| 20260506213510 | 11 | 300 | 8.0 | 19.3 | 0.00 | 0.81 | 0.81 | 86 | 1009.4 |
| 20260506213022 | 11 | 325 | 6.4 | 19.3 | 0.00 | 0.81 | 0.81 | 85 | 1009.3 |
| 20260506212509 | 11 | 293 | 8.0 | 19.3 | 0.00 | 0.81 | 0.81 | 86 | 1009.1 |
| 20260506212014 | 11 | 344 | 8.0 | 22.5 | 0.00 | 0.81 | 0.81 | 87 | 1009.0 |
| 20260506211525 | 11 | 360 | 12.9 | 25.7 | 0.03 | 0.81 | 0.81 | 86 | 1009.1 |
| 20260506211010 | 11 | 317 | 8.0 | 25.7 | 0.03 | 0.81 | 0.81 | 87 | 1009.0 |
| 20260506210509 | 11 | 284 | 8.0 | 17.7 | 0.05 | 0.81 | 0.81 | 88 | 1008.8 |
| 20260506210014 | 11 | 348 | 8.0 | 20.9 | 0.05 | 0.81 | 0.81 | 89 | 1008.8 |
| 20260506205507 | 11 | 346 | 6.4 | 20.9 | 0.05 | 0.81 | 0.81 | 88 | 1008.7 |
| 20260506205007 | 11 | 34 | 9.7 | 17.7 | 0.05 | 0.81 | 0.81 | 89 | 1008.6 |
| 20260506204524 | 11 | 323 | 6.4 | 22.5 | 0.05 | 0.81 | 0.81 | 89 | 1008.5 |
| 20260506204007 | 11 | 321 | 9.7 | 22.5 | 0.05 | 0.81 | 0.81 | 89 | 1008.5 |
| 20260506203507 | 11 | 327 | 9.7 | 19.3 | 0.05 | 0.81 | 0.81 | 90 | 1008.3 |
| 20260506203026 | 12 | 336 | 4.8 | 14.5 | 0.05 | 0.81 | 0.81 | 90 | 1008.2 |
| 20260506202509 | 12 | 322 | 6.4 | 12.9 | 0.05 | 0.81 | 0.81 | 90 | 1008.0 |
| 20260506202014 | 12 | 338 | 4.8 | 14.5 | 0.05 | 0.81 | 0.81 | 89 | 1007.9 |
| 20260506201511 | 12 | 327 | 8.0 | 14.5 | 0.03 | 0.79 | 0.79 | 87 | 1007.8 |
| 20260506201001 | 13 | 330 | 3.2 | 22.5 | 0.03 | 0.79 | 0.79 | 87 | 1007.8 |
| 20260506200503 | 13 | 15 | 6.4 | 24.1 | 0.00 | 0.76 | 0.76 | 86 | 1007.7 |
| 20260506200012 | 15 | 336 | 14.5 | 24.1 | 0.00 | 0.76 | 0.76 | 90 | 1007.5 |
| 20260506195506 | 15 | 209 | 3.2 | 8.0 | 0.00 | 0.76 | 0.76 | 90 | 1007.1 |
| 20260506195007 | 15 | 225 | 0.0 | 6.4 | 0.00 | 0.76 | 0.76 | 91 | 1007.2 |
| 20260506194516 | 15 | 284 | 1.6 | 9.7 | 0.00 | 0.76 | 0.76 | 91 | 1007.3 |
| 20260506194012 | 15 | 254 | 3.2 | 11.3 | 0.00 | 0.76 | 0.76 | 91 | 1007.4 |
| 20260506193502 | 15 | 288 | 3.2 | 11.3 | 0.00 | 0.76 | 0.76 | 91 | 1007.4 |
| 20260506193004 | 15 | 269 | 4.8 | 8.0 | 0.00 | 0.76 | 0.76 | 1007.4 | |
| 20260506192503 | 15 | 241 | 3.2 | 9.7 | 0.00 | 0.76 | 0.76 | 92 | 1007.5 |
| 20260506192004 | 15 | 212 | 3.2 | 9.7 | 0.00 | 0.76 | 0.76 | 92 | 1007.4 |
| 20260506191504 | 15 | 236 | 3.2 | 14.5 | 0.00 | 0.76 | 0.76 | 92 | 1007.3 |
| 20260506191004 | 15 | 240 | 8.0 | 14.5 | 0.00 | 0.76 | 0.76 | 91 | 1007.2 |
| 20260506190505 | 15 | 188 | 3.2 | 14.5 | 0.00 | 0.76 | 0.76 | 92 | 1007.3 |
| 20260506190009 | 15 | 259 | 8.0 | 14.5 | 0.00 | 0.76 | 0.76 | 91 | 1007.4 |
| 20260506185505 | 15 | 269 | 8.0 | 12.9 | 0.00 | 0.76 | 0.76 | 91 | 1007.4 |
| 20260506185009 | 15 | 223 | 4.8 | 9.7 | 0.00 | 0.76 | 0.76 | 92 | 1007.4 |
| 20260506184522 | 15 | 254 | 4.8 | 9.7 | 0.00 | 0.76 | 0.76 | 92 | 1007.4 |
| 20260506184006 | 15 | 254 | 3.2 | 6.4 | 0.00 | 0.76 | 0.76 | 92 | 1007.4 |
| 20260506183507 | 15 | 225 | 1.6 | 4.8 | 0.00 | 0.76 | 0.76 | 92 | 1007.3 |
| 20260506183018 | 15 | 252 | 3.2 | 4.8 | 0.00 | 0.76 | 0.76 | 92 | 1007.3 |
| 20260506182507 | 15 | 288 | 1.6 | 4.8 | 0.00 | 0.76 | 0.76 | 92 | 1007.3 |
| 20260506182003 | 15 | 271 | 1.6 | 3.2 | 0.00 | 0.76 | 0.76 | 92 | 1007.3 |
| 20260506181504 | 15 | 261 | 1.6 | 3.2 | 0.00 | 0.76 | 0.76 | 93 | 1007.3 |
| 20260506181004 | 15 | 219 | 0.0 | 3.2 | 0.00 | 0.76 | 0.76 | 93 | 1007.3 |
| 20260506180504 | 15 | 244 | 0.0 | 3.2 | 0.00 | 0.76 | 0.76 | 92 | 1007.3 |
| 20260506180008 | 15 | 201 | 1.6 | 4.8 | 0.00 | 0.76 | 0.76 | 92 | 1007.4 |
| 20260506175504 | 15 | 180 | 1.6 | 4.8 | 0.00 | 0.76 | 0.76 | 92 | 1007.3 |
| 20260506175005 | 14 | 175 | 0.0 | 4.8 | 0.00 | 0.76 | 0.76 | 92 | 1007.3 |
| 20260506174512 | 14 | 207 | 0.0 | 3.2 | 0.00 | 0.76 | 0.76 | 1007.3 | |
| 20260506174010 | 14 | 125 | 0.0 | 3.2 | 0.00 | 0.76 | 0.76 | 93 | 1007.3 |
| 20260506173510 | 14 | 161 | 1.6 | 3.2 | 0.00 | 0.76 | 0.76 | 93 | 1007.3 |
| 20260506173017 | 14 | 132 | 1.6 | 3.2 | 0.00 | 0.76 | 0.76 | 93 | 1007.3 |
| 20260506172508 | 14 | 176 | 1.6 | 3.2 | 0.00 | 0.76 | 0.76 | 93 | 1007.3 |
| 20260506172013 | 14 | 102 | 0.0 | 3.2 | 0.00 | 0.76 | 0.76 | 93 | 1007.2 |
| 20260506171523 | 14 | 153 | 0.0 | 3.2 | 0.00 | 0.76 | 0.76 | 93 | 1007.2 |
| 20260506171003 | 13 | 153 | 1.6 | 3.2 | 0.00 | 0.76 | 0.76 | 93 | 1007.3 |
| 20260506170505 | 13 | 185 | 0.0 | 3.2 | 0.00 | 0.76 | 0.76 | 94 | 1007.4 |
| 20260506170009 | 13 | 176 | 0.0 | 3.2 | 0.00 | 0.76 | 0.76 | 93 | 1007.5 |
| 20260506165503 | 13 | 149 | 0.0 | 3.2 | 0.00 | 0.76 | 0.76 | 94 | 1007.5 |
| 20260506165007 | 13 | 87 | 0.0 | 3.2 | 0.00 | 0.76 | 0.76 | 94 | 1007.5 |
| 20260506164509 | 13 | 87 | 0.0 | 3.2 | 0.00 | 0.76 | 0.76 | 93 | 1007.6 |
| 20260506164004 | 13 | 87 | 0.0 | 3.2 | 0.00 | 0.76 | 0.76 | 93 | 1007.5 |
| 20260506163507 | 13 | 87 | 1.6 | 3.2 | 0.00 | 0.76 | 0.76 | 93 | 1007.6 |
| 20260506163017 | 13 | 88 | 0.0 | 3.2 | 0.00 | 0.76 | 0.76 | 93 | 1007.6 |
| 20260506162510 | 13 | 107 | 0.0 | 3.2 | 0.00 | 0.76 | 0.76 | 94 | 1007.7 |
| 20260506162010 | 13 | 147 | 1.6 | 3.2 | 0.00 | 0.76 | 0.76 | 94 | 1007.7 |
| 20260506161519 | 13 | 117 | 0.0 | 3.2 | 0.00 | 0.76 | 0.76 | 94 | 1007.6 |
| 20260506161011 | 13 | 132 | 0.0 | 4.8 | 0.00 | 0.76 | 0.76 | 93 | 1007.7 |
| 20260506160508 | 13 | 126 | 0.0 | 4.8 | 0.00 | 0.76 | 0.76 | 93 | 1007.7 |
| 20260506160026 | 13 | 143 | 0.0 | 3.2 | 0.00 | 0.76 | 0.76 | 93 | 1007.6 |
| 20260506155503 | 13 | 143 | 0.0 | 3.2 | 0.00 | 0.76 | 0.76 | 93 | 1007.7 |
| 20260506155006 | 13 | 167 | 0.0 | 3.2 | 0.03 | 0.76 | 0.76 | 93 | 1007.8 |
| 20260506154507 | 13 | 150 | 1.6 | 4.8 | 0.03 | 0.76 | 0.76 | 93 | 1007.7 |
| 20260506154003 | 13 | 162 | 1.6 | 6.4 | 0.05 | 0.76 | 0.76 | 93 | 1007.7 |
| 20260506153504 | 13 | 175 | 3.2 | 6.4 | 0.08 | 0.76 | 0.76 | 94 | 1007.7 |
| 20260506153012 | 13 | 134 | 1.6 | 4.8 | 0.08 | 0.76 | 0.76 | 93 | 1007.7 |
| 20260506152505 | 12 | 115 | 3.2 | 4.8 | 0.10 | 0.76 | 0.76 | 94 | 1007.6 |
| 20260506152006 | 12 | 159 | 1.6 | 4.8 | 0.10 | 0.76 | 0.76 | 94 | 1007.5 |
| 20260506151517 | 12 | 94 | 1.6 | 4.8 | 0.10 | 0.76 | 0.76 | 94 | 1007.4 |
| 20260506151008 | 12 | 96 | 3.2 | 4.8 | 0.13 | 0.76 | 0.76 | 94 | 1007.4 |
| 20260506150507 | 12 | 119 | 1.6 | 4.8 | 0.13 | 0.76 | 0.76 | 94 | 1007.6 |
| 20260506150022 | 12 | 118 | 1.6 | 4.8 | 0.15 | 0.76 | 0.76 | 93 | 1007.7 |
| 20260506145512 | 12 | 111 | 1.6 | 4.8 | 0.18 | 0.76 | 0.76 | 93 | 1007.6 |
| 20260506145014 | 12 | 114 | 0.0 | 3.2 | 0.18 | 0.74 | 0.74 | 93 | 1007.6 |
| 20260506144548 | 12 | 148 | 1.6 | 3.2 | 0.23 | 0.74 | 0.74 | 93 | 1007.6 |
| 20260506144005 | 12 | 123 | 0.0 | 3.2 | 0.23 | 0.71 | 0.71 | 93 | 1007.6 |
| 20260506143506 | 12 | 122 | 0.0 | 3.2 | 0.23 | 0.69 | 0.69 | 93 | 1007.7 |
| 20260506143012 | 12 | 176 | 1.6 | 4.8 | 0.23 | 0.69 | 0.69 | 93 | 1007.6 |
| 20260506142504 | 12 | 142 | 1.6 | 4.8 | 0.23 | 0.66 | 0.66 | 93 | 1007.4 |
| 20260506142004 | 12 | 155 | 1.6 | 4.8 | 0.23 | 0.66 | 0.66 | 93 | 1007.4 |
| 20260506141513 | 12 | 154 | 0.0 | 4.8 | 0.23 | 0.66 | 0.66 | 93 | 1007.5 |
| 20260506141008 | 12 | 147 | 1.6 | 4.8 | 0.20 | 0.64 | 0.64 | 93 | 1007.5 |
| 20260506140509 | 12 | 85 | 1.6 | 3.2 | 0.20 | 0.64 | 0.64 | 93 | 1007.4 |
| 20260506140024 | 12 | 117 | 1.6 | 4.8 | 0.18 | 0.61 | 0.61 | 93 | 1007.5 |
| 20260506135508 | 12 | 142 | 3.2 | 4.8 | 0.15 | 0.58 | 0.58 | 93 | 1007.6 |
| 20260506135009 | 13 | 147 | 0.0 | 4.8 | 0.15 | 0.56 | 0.56 | 93 | 1007.6 |
| 20260506134532 | 12 | 110 | 0.0 | 4.8 | 0.10 | 0.51 | 0.51 | 92 | 1007.7 |
| 20260506134008 | 13 | 127 | 1.6 | 9.7 | 0.10 | 0.48 | 0.48 | 92 | 1007.8 |
| 20260506133512 | 13 | 156 | 1.6 | 9.7 | 0.10 | 0.46 | 0.46 | 92 | 1007.7 |
| 20260506133029 | 13 | 134 | 0.0 | 6.4 | 0.13 | 0.46 | 0.46 | 93 | 1007.6 |
| 20260506132508 | 13 | 121 | 1.6 | 6.4 | 0.13 | 0.43 | 0.43 | 92 | 1007.6 |
| 20260506132006 | 13 | 172 | 3.2 | 6.4 | 0.15 | 0.43 | 0.43 | 93 | 1007.7 |
| 20260506131512 | 13 | 123 | 1.6 | 6.4 | 0.18 | 0.43 | 0.43 | 93 | 1007.5 |
| 20260506131006 | 13 | 117 | 1.6 | 6.4 | 0.20 | 0.43 | 0.43 | 93 | 1007.5 |
| 20260506130507 | 13 | 113 | 1.6 | 4.8 | 0.20 | 0.43 | 0.43 | 93 | 1007.6 |
| 20260506130018 | 13 | 94 | 1.6 | 4.8 | 0.23 | 0.43 | 0.43 | 93 | 1007.6 |
| 20260506125506 | 12 | 101 | 0.0 | 4.8 | 0.23 | 0.43 | 0.43 | 93 | 1007.6 |
| 20260506125006 | 12 | 77 | 1.6 | 4.8 | 0.23 | 0.41 | 0.41 | 93 | 1007.6 |
| 20260506124523 | 12 | 172 | 1.6 | 4.8 | 0.23 | 0.41 | 0.41 | 93 | 1007.9 |
| 20260506124006 | 12 | 101 | 0.0 | 4.8 | 0.20 | 0.38 | 0.38 | 93 | 1007.8 |
| 20260506123507 | 12 | 148 | 1.6 | 4.8 | 0.20 | 0.36 | 0.36 | 93 | 1008.0 |
| 20260506123036 | 12 | 107 | 3.2 | 6.4 | 0.18 | 0.33 | 0.33 | 93 | 1008.2 |
| 20260506122510 | 12 | 107 | 3.2 | 6.4 | 0.18 | 0.30 | 0.30 | 93 | 1008.5 |
| 20260506122012 | 12 | 115 | 3.2 | 6.4 | 0.15 | 0.28 | 0.28 | 93 | 1008.5 |
| 20260506121510 | 12 | 78 | 1.6 | 6.4 | 0.13 | 0.25 | 0.25 | 93 | 1008.3 |
| 20260506121007 | 12 | 117 | 1.6 | 6.4 | 0.10 | 0.23 | 0.23 | 93 | 1008.4 |
| 20260506120507 | 12 | 152 | 0.0 | 4.8 | 0.13 | 0.23 | 0.23 | 93 | 1008.4 |
| 20260506120024 | 12 | 142 | 0.0 | 4.8 | 0.10 | 0.20 | 0.20 | 92 | 1008.2 |